2025-197B

Last updated on Thu Sep 11 2025 00:02:08 GMT+0000 (Coordinated Universal Time)

1 65489U 25197B 25251.16057737 .00005565 00000+0 25580-3 0 9990 2 65489 97.4117 76.9325 0013220 277.6459 82.3275 15.20695336 404
UTC large
Height (km)
Speed (km/s)
/
Latitude / Longitude
Inclination (degrees)
Orbital Period (minutes)
Azimuth
Elevation
Range (km)
Doppler Factor

Next 0 passes for location: London (51.5072 / 0.1276)

Sorry there are no passes over London.